Location: Brachbach
(49.1847°N, 9.7240°E)
Time: 02:13:16
(UTC+00:00)

ARIANE 6 FM1 Upper Stage - Pass Details

Date: 29 January 2026
Orbit: 522 x 609 km, 62.0° (Epoch: 13 February)

Event Time Altitude Azimuth Distance (km) Brightness Sun altitude
Rises 17:33:11 0° 246° (WSW) 2,699 7.9 -13.2°
Reaches altitude 10° 17:35:31 10° 255° (WSW) 1,797 6.7 -13.6°
Maximum altitude 17:39:17 38° 324° (NW) 830 3.7 -14.2°
Enters shadow 17:42:21 14° 30° (NNE) 1,533 4.5 -14.7°
